Notices

What's New in latest Release from April 7th, 2021:

- Updated Glossary, including Speed of Maximum Gust, and Total Hourly Precipitation

- Updated national and regional climate services offices contacts and prices information

- Addition of station inventory lists for 1981-2010, 1971-2000, and 1961-1990 Normals.

If you haven't already, please take our survey and provide feedback about our website: https://eccc.sondage-survey.ca/f/LanguageSelection.aspx?s=442ca660-fcf1-47c0-95a9-59707d6fd709

Hourly Data Report for October 09, 2003

TORONTO CITY
ONTARIO

43°40'00.000" N
79°24'00.000" W
112.50 m
6158355
71508
XTO

Download Data

Hourly Data (October 2003)
Hourly Data Report for October 9, 2003
TIME
LST
Temp Definition
°C
Dew Point Definition
°C
Rel Hum Definition
%
Precip. Amount Definition
mm

Wind Dir Definition
10's deg

Wind Spd Definition
km/h
Visibility Definition
km
Stn Press Definition
kPa
Hmdx Definition


Wind Chill Definition


Weather Definition


00:00
01:00 14.4 13.8 96   LegendMM LegendMM LegendMM 100.59     LegendNANA
02:00 13.9 13.3 96   LegendMM LegendMM LegendMM 100.61     LegendNANA
03:00 13.2 12.6 96   LegendMM LegendMM LegendMM 100.60     LegendNANA
04:00 13.0 12.5 97   LegendMM LegendMM LegendMM 100.62     LegendNANA
05:00 12.8 12.4 97   LegendMM LegendMM LegendMM 100.67     LegendNANA
06:00 12.5 12.1 97   LegendMM LegendMM LegendMM 100.71     LegendNANA
07:00 13.1 12.7 97   LegendMM LegendMM LegendMM 100.73     LegendNANA
08:00 15.9 14.2 90   LegendMM LegendMM LegendMM 100.80     LegendNANA
09:00 18.1 14.7 81   LegendMM LegendMM LegendMM 100.84     LegendNANA
10:00 21.4 13.7 61   LegendMM LegendMM LegendMM 100.85 25   LegendNANA
11:00 22.9 14.7 60   LegendMM LegendMM LegendMM 100.84 27   LegendNANA
12:00 21.6 13.5 60   LegendMM LegendMM LegendMM 100.83 25   LegendNANA
13:00 21.1 13.7 63   LegendMM LegendMM LegendMM 100.78     LegendNANA
14:00 21.9 14.6 63   LegendMM LegendMM LegendMM 100.74 26   LegendNANA
15:00 21.7 14.1 62   LegendMM LegendMM LegendMM 100.70 25   LegendNANA
16:00 21.7 13.7 60   LegendMM LegendMM LegendMM 100.69 25   LegendNANA
17:00 21.3 13.8 62   LegendMM LegendMM LegendMM 100.70 25   LegendNANA
18:00 18.5 13.3 72   LegendMM LegendMM LegendMM 100.72     LegendNANA
19:00 16.5 12.8 79   LegendMM LegendMM LegendMM 100.72     LegendNANA
20:00 15.6 12.7 83   LegendMM LegendMM LegendMM 100.74     LegendNANA
21:00 15.5 13.3 87   LegendMM LegendMM LegendMM 100.75     LegendNANA
22:00 14.9 12.8 87   LegendMM LegendMM LegendMM 100.76     LegendNANA
23:00 15.9 13.3 85   LegendMM LegendMM LegendMM 100.76     LegendNANA

Notes on Data Quality.

Legend

  • E = Estimated
  • M = Missing
  • NA = Not Available*
  • [empty] = Indicates an unobserved value
Date modified: